owner,sensor,date,latitude,longitude,vertical_datum,wind_speed,wind_to_direction,wind_speed_of_gust,qcFlag 
COMPS,ioos:station:USF.COMPS:ARP:1,2015-03-01T01:00:00Z,28.4330,-82.6670,10.0,3.33,73.16,5.78,'1111122,1111122,1111122' 
COMPS,ioos:station:USF.COMPS:ARP:1,2015-03-01T01:06:00Z,28.4330,-82.6670,10.0,3.44,71.24,4.41,'1111122,1111122,1111122' 
COMPS,ioos:station:USF.COMPS:ARP:1,2015-03-01T01:12:00Z,28.4330,-82.6670,10.0,3.3,70.27,5.87,'1111122,1111122,1111122' 
COMPS,ioos:station:USF.COMPS:ARP:1,2015-03-01T01:18:00Z,28.4330,-82.6670,10.0,3.86,70.25,5.29,'1111122,1111122,1111122' 
COMPS,ioos:station:USF.COMPS:ARP:1,2015-03-01T01:24:00Z,28.4330,-82.6670,10.0,3.45,76.53,5.58,'1111122,1111122,1111122' 
COMPS,ioos:station:USF.COMPS:ARP:1,2015-03-01T01:30:00Z,28.4330,-82.6670,10.0,3.69,77.72,5.97,'1111122,1111122,1111122' 
COMPS,ioos:station:USF.COMPS:ARP:1,2015-03-01T01:36:00Z,28.4330,-82.6670,10.0,3.16,84.76,4.7,'1111122,1111122,1111122' 
COMPS,ioos:station:USF.COMPS:ARP:1,2015-03-01T01:42:00Z,28.4330,-82.6670,10.0,3.06,91.31,5.09,'1111122,1111122,1111122' 
COMPS,ioos:station:USF.COMPS:ARP:1,2015-03-01T01:48:00Z,28.4330,-82.6670,10.0,2.97,83.88,3.91,'1111122,1111122,1111122' 
COMPS,ioos:station:USF.COMPS:ARP:1,2015-03-01T01:54:00Z,28.4330,-82.6670,10.0,2.49,82.07,3.52,'1111122,1111122,1111122' 
COMPS,ioos:station:USF.COMPS:ARP:1,2015-03-01T03:00:00Z,28.4330,-82.6670,10.0,3.58,90.19,6.27,'1111122,1111122,1111122' 
COMPS,ioos:station:USF.COMPS:ARP:1,2015-03-01T03:06:00Z,28.4330,-82.6670,10.0,3.69,93.15,5.87,'1111122,1111122,1111122' 
COMPS,ioos:station:USF.COMPS:ARP:1,2015-03-01T03:12:00Z,28.4330,-82.6670,10.0,3.76,84.37,5.68,'1111122,1111122,1111122' 
COMPS,ioos:station:USF.COMPS:ARP:1,2015-03-01T03:18:00Z,28.4330,-82.6670,10.0,3.32,87.16,4.9,'1111122,1111122,1111122' 
COMPS,ioos:station:USF.COMPS:ARP:1,2015-03-01T03:24:00Z,28.4330,-82.6670,10.0,3.37,90.98,5.39,'1111122,1111122,1111122' 
COMPS,ioos:station:USF.COMPS:ARP:1,2015-03-01T03:30:00Z,28.4330,-82.6670,10.0,3.64,89.97,5.58,'1111122,1111122,1111122' 
COMPS,ioos:station:USF.COMPS:ARP:1,2015-03-01T03:36:00Z,28.4330,-82.6670,10.0,3.41,94.83,5.48,'1111122,1111122,1111122' 
COMPS,ioos:station:USF.COMPS:ARP:1,2015-03-01T03:42:00Z,28.4330,-82.6670,10.0,3.6,91.38,5.97,'1111122,1111122,1111122' 
COMPS,ioos:station:USF.COMPS:ARP:1,2015-03-01T03:48:00Z,28.4330,-82.6670,10.0,3.65,87.47,5.39,'1111122,1111122,1111122' 
COMPS,ioos:station:USF.COMPS:ARP:1,2015-03-01T03:54:00Z,28.4330,-82.6670,10.0,4.24,91.25,6.27,'1111122,1111122,1111122' 
COMPS,ioos:station:USF.COMPS:ARP:1,2015-03-01T04:00:00Z,28.4330,-82.6670,10.0,3.32,100.25,5.09,'1111122,1111122,1111122' 
COMPS,ioos:station:USF.COMPS:ARP:1,2015-03-01T04:06:00Z,28.4330,-82.6670,10.0,4.42,102.71,7.74,'1111122,1111122,1111122' 
COMPS,ioos:station:USF.COMPS:ARP:1,2015-03-01T04:12:00Z,28.4330,-82.6670,10.0,3.99,92.68,5.78,'1111122,1111122,1111122' 
COMPS,ioos:station:USF.COMPS:ARP:1,2015-03-01T04:18:00Z,28.4330,-82.6670,10.0,3.39,92.42,5.78,'1111122,1111122,1111122' 
COMPS,ioos:station:USF.COMPS:ARP:1,2015-03-01T04:24:00Z,28.4330,-82.6670,10.0,3.72,87.02,6.27,'1111122,1111122,1111122' 
COMPS,ioos:station:USF.COMPS:ARP:1,2015-03-01T04:30:00Z,28.4330,-82.6670,10.0,2.72,85.09,4.8,'1111122,1111122,1111122' 
COMPS,ioos:station:USF.COMPS:ARP:1,2015-03-01T04:36:00Z,28.4330,-82.6670,10.0,2.78,84.78,4.8,'1111122,1111122,1111122' 
COMPS,ioos:station:USF.COMPS:ARP:1,2015-03-01T04:42:00Z,28.4330,-82.6670,10.0,2.74,92.93,3.91,'1111122,1111122,1111122' 
COMPS,ioos:station:USF.COMPS:ARP:1,2015-03-01T04:48:00Z,28.4330,-82.6670,10.0,2.85,85.63,4.11,'1111122,1111122,1111122' 
COMPS,ioos:station:USF.COMPS:ARP:1,2015-03-01T04:54:00Z,28.4330,-82.6670,10.0,3.01,86.59,4.01,'1111122,1111122,1111122' 
COMPS,ioos:station:USF.COMPS:ARP:1,2015-03-01T05:00:00Z,28.4330,-82.6670,10.0,2.68,85.59,3.72,'1111122,1111122,1111122' 
COMPS,ioos:station:USF.COMPS:ARP:1,2015-03-01T05:06:00Z,28.4330,-82.6670,10.0,2.74,81.2,5.29,'1111122,1111122,1111122' 
COMPS,ioos:station:USF.COMPS:ARP:1,2015-03-01T05:12:00Z,28.4330,-82.6670,10.0,3.05,84.24,4.9,'1111122,1111122,1111122' 
COMPS,ioos:station:USF.COMPS:ARP:1,2015-03-01T05:18:00Z,28.4330,-82.6670,10.0,2.49,83.35,3.91,'1111122,1111122,1111122' 
COMPS,ioos:station:USF.COMPS:ARP:1,2015-03-01T05:24:00Z,28.4330,-82.6670,10.0,2.73,84.3,4.31,'1111122,1111122,1111122' 
COMPS,ioos:station:USF.COMPS:ARP:1,2015-03-01T05:30:00Z,28.4330,-82.6670,10.0,2.87,88.06,4.8,'1111122,1111122,1111122' 
COMPS,ioos:station:USF.COMPS:ARP:1,2015-03-01T05:36:00Z,28.4330,-82.6670,10.0,2.77,91.6,4.7,'1111122,1111122,1111122' 
COMPS,ioos:station:USF.COMPS:ARP:1,2015-03-01T05:42:00Z,28.4330,-82.6670,10.0,2.8,94.44,3.91,'1111122,1111122,1111122' 
COMPS,ioos:station:USF.COMPS:ARP:1,2015-03-01T05:48:00Z,28.4330,-82.6670,10.0,2.9,93.05,4.6,'1111122,1111122,1111122' 
COMPS,ioos:station:USF.COMPS:ARP:1,2015-03-01T05:54:00Z,28.4330,-82.6670,10.0,3.05,91.69,5.19,'1111122,1111122,1111122' 
COMPS,ioos:station:USF.COMPS:ARP:1,2015-03-01T06:00:00Z,28.4330,-82.6670,10.0,3.15,77.45,4.21,'1111122,1111122,1111122' 
COMPS,ioos:station:USF.COMPS:ARP:1,2015-03-01T06:06:00Z,28.4330,-82.6670,10.0,3.09,78.65,4.7,'1111122,1111122,1111122' 
COMPS,ioos:station:USF.COMPS:ARP:1,2015-03-01T06:12:00Z,28.4330,-82.6670,10.0,2.9,83.55,4.31,'1111122,1111122,1111122' 
COMPS,ioos:station:USF.COMPS:ARP:1,2015-03-01T06:18:00Z,28.4330,-82.6670,10.0,2.53,83.3,4.5,'1111122,1111122,1111122' 
COMPS,ioos:station:USF.COMPS:ARP:1,2015-03-01T06:24:00Z,28.4330,-82.6670,10.0,2.6,73.14,4.11,'1111122,1111122,1111122' 
COMPS,ioos:station:USF.COMPS:ARP:1,2015-03-01T06:30:00Z,28.4330,-82.6670,10.0,2.22,83.19,4.41,'1111122,1111122,1111122' 
COMPS,ioos:station:USF.COMPS:ARP:1,2015-03-01T06:36:00Z,28.4330,-82.6670,10.0,2.55,76.82,4.41,'1111122,1111122,1111122' 
COMPS,ioos:station:USF.COMPS:ARP:1,2015-03-01T06:42:00Z,28.4330,-82.6670,10.0,2.19,79.68,3.13,'1111122,1111122,1111122' 
COMPS,ioos:station:USF.COMPS:ARP:1,2015-03-01T06:48:00Z,28.4330,-82.6670,10.0,2.7,77.12,3.62,'1111122,1111122,1111122' 
COMPS,ioos:station:USF.COMPS:ARP:1,2015-03-01T06:54:00Z,28.4330,-82.6670,10.0,3.08,78.98,4.9,'1111122,1111122,1111122' 
COMPS,ioos:station:USF.COMPS:ARP:1,2015-03-01T08:00:00Z,28.4330,-82.6670,10.0,3.27,97.86,4.7,'1111122,1111122,1111122' 
COMPS,ioos:station:USF.COMPS:ARP:1,2015-03-01T08:06:00Z,28.4330,-82.6670,10.0,3.51,102.2,5.29,'1111122,1111122,1111122' 
COMPS,ioos:station:USF.COMPS:ARP:1,2015-03-01T08:12:00Z,28.4330,-82.6670,10.0,2.97,87.0,4.41,'1111122,1111122,1111122' 
COMPS,ioos:station:USF.COMPS:ARP:1,2015-03-01T08:18:00Z,28.4330,-82.6670,10.0,3.22,73.72,4.5,'1111122,1111122,1111122' 
COMPS,ioos:station:USF.COMPS:ARP:1,2015-03-01T08:24:00Z,28.4330,-82.6670,10.0,2.38,61.0,3.72,'1111122,1111122,1111122' 
COMPS,ioos:station:USF.COMPS:ARP:1,2015-03-01T08:30:00Z,28.4330,-82.6670,10.0,1.83,57.89,3.33,'1111122,1111122,1111122' 
COMPS,ioos:station:USF.COMPS:ARP:1,2015-03-01T08:36:00Z,28.4330,-82.6670,10.0,1.9,65.55,3.42,'1111122,1111122,1111122' 
COMPS,ioos:station:USF.COMPS:ARP:1,2015-03-01T08:42:00Z,28.4330,-82.6670,10.0,2.48,75.65,3.42,'1111122,1111122,1111122' 
COMPS,ioos:station:USF.COMPS:ARP:1,2015-03-01T08:48:00Z,28.4330,-82.6670,10.0,2.19,82.27,3.23,'1111122,1111122,1111122' 
COMPS,ioos:station:USF.COMPS:ARP:1,2015-03-01T08:54:00Z,28.4330,-82.6670,10.0,2.17,88.5,3.52,'1111122,1111122,1111122' 
COMPS,ioos:station:USF.COMPS:ARP:1,2015-03-01T09:00:00Z,28.4330,-82.6670,10.0,2.54,86.42,3.72,'1111122,1111122,1111122' 
COMPS,ioos:station:USF.COMPS:ARP:1,2015-03-01T09:06:00Z,28.4330,-82.6670,10.0,2.96,91.19,4.31,'1111122,1111122,1111122' 
COMPS,ioos:station:USF.COMPS:ARP:1,2015-03-01T09:12:00Z,28.4330,-82.6670,10.0,3.17,92.68,4.8,'1111122,1111122,1111122' 
COMPS,ioos:station:USF.COMPS:ARP:1,2015-03-01T09:18:00Z,28.4330,-82.6670,10.0,3.2,90.07,4.6,'1111122,1111122,1111122' 
COMPS,ioos:station:USF.COMPS:ARP:1,2015-03-01T09:24:00Z,28.4330,-82.6670,10.0,3.48,82.42,5.78,'1111122,1111122,1111122' 
COMPS,ioos:station:USF.COMPS:ARP:1,2015-03-01T09:30:00Z,28.4330,-82.6670,10.0,3.38,65.73,4.8,'1111122,1111122,1111122' 
COMPS,ioos:station:USF.COMPS:ARP:1,2015-03-01T09:36:00Z,28.4330,-82.6670,10.0,2.42,63.81,3.72,'1111122,1111122,1111122' 
COMPS,ioos:station:USF.COMPS:ARP:1,2015-03-01T09:42:00Z,28.4330,-82.6670,10.0,1.97,63.91,3.33,'1111122,1111122,1111122' 
COMPS,ioos:station:USF.COMPS:ARP:1,2015-03-01T09:48:00Z,28.4330,-82.6670,10.0,2.56,69.66,3.72,'1111122,1111122,1111122' 
COMPS,ioos:station:USF.COMPS:ARP:1,2015-03-01T09:54:00Z,28.4330,-82.6670,10.0,3.04,83.38,4.01,'1111122,1111122,1111122' 
COMPS,ioos:station:USF.COMPS:ARP:1,2015-03-01T10:00:00Z,28.4330,-82.6670,10.0,2.91,91.83,3.91,'1111122,1111122,1111122' 
COMPS,ioos:station:USF.COMPS:ARP:1,2015-03-01T10:06:00Z,28.4330,-82.6670,10.0,2.54,93.34,4.9,'1111122,1111122,1111122' 
COMPS,ioos:station:USF.COMPS:ARP:1,2015-03-01T10:12:00Z,28.4330,-82.6670,10.0,2.71,87.21,4.31,'1111122,1111122,1111122' 
COMPS,ioos:station:USF.COMPS:ARP:1,2015-03-01T10:18:00Z,28.4330,-82.6670,10.0,2.33,79.66,3.82,'1111122,1111122,1111122' 
COMPS,ioos:station:USF.COMPS:ARP:1,2015-03-01T10:24:00Z,28.4330,-82.6670,10.0,2.1,85.69,3.23,'1111122,1111122,1111122' 
COMPS,ioos:station:USF.COMPS:ARP:1,2015-03-01T10:30:00Z,28.4330,-82.6670,10.0,2.37,77.94,3.91,'1111122,1111122,1111122' 
COMPS,ioos:station:USF.COMPS:ARP:1,2015-03-01T10:36:00Z,28.4330,-82.6670,10.0,2.6,70.26,3.42,'1111122,1111122,1111122' 
COMPS,ioos:station:USF.COMPS:ARP:1,2015-03-01T10:42:00Z,28.4330,-82.6670,10.0,2.21,81.19,3.62,'1111122,1111122,1111122' 
COMPS,ioos:station:USF.COMPS:ARP:1,2015-03-01T10:48:00Z,28.4330,-82.6670,10.0,2.32,92.03,3.82,'1111122,1111122,1111122' 
COMPS,ioos:station:USF.COMPS:ARP:1,2015-03-01T10:54:00Z,28.4330,-82.6670,10.0,2.42,91.2,3.72,'1111122,1111122,1111122' 
COMPS,ioos:station:USF.COMPS:ARP:1,2015-03-01T11:00:00Z,28.4330,-82.6670,10.0,2.67,83.07,3.82,'1111122,1111122,1111122' 
COMPS,ioos:station:USF.COMPS:ARP:1,2015-03-01T11:06:00Z,28.4330,-82.6670,10.0,2.82,92.1,4.6,'1111122,1111122,1111122' 
COMPS,ioos:station:USF.COMPS:ARP:1,2015-03-01T11:12:00Z,28.4330,-82.6670,10.0,2.84,95.07,4.11,'1111122,1111122,1111122' 
COMPS,ioos:station:USF.COMPS:ARP:1,2015-03-01T11:18:00Z,28.4330,-82.6670,10.0,2.89,91.93,3.91,'1111122,1111122,1111122' 
COMPS,ioos:station:USF.COMPS:ARP:1,2015-03-01T11:24:00Z,28.4330,-82.6670,10.0,2.8,97.51,4.8,'1111122,1111122,1111122' 
COMPS,ioos:station:USF.COMPS:ARP:1,2015-03-01T11:30:00Z,28.4330,-82.6670,10.0,2.66,88.74,3.91,'1111122,1111122,1111122' 
COMPS,ioos:station:USF.COMPS:ARP:1,2015-03-01T11:36:00Z,28.4330,-82.6670,10.0,2.74,85.87,4.01,'1111122,1111122,1111122' 
COMPS,ioos:station:USF.COMPS:ARP:1,2015-03-01T11:42:00Z,28.4330,-82.6670,10.0,2.42,90.41,4.31,'1111122,1111122,1111122' 
COMPS,ioos:station:USF.COMPS:ARP:1,2015-03-01T11:48:00Z,28.4330,-82.6670,10.0,2.55,93.75,4.01,'1111122,1111122,1111122' 
COMPS,ioos:station:USF.COMPS:ARP:1,2015-03-01T11:54:00Z,28.4330,-82.6670,10.0,2.3,93.12,3.33,'1111122,1111122,1111122' 
COMPS,ioos:station:USF.COMPS:ARP:1,2015-03-01T12:00:00Z,28.4330,-82.6670,10.0,2.26,99.51,3.52,'1111122,1111122,1111122' 
COMPS,ioos:station:USF.COMPS:ARP:1,2015-03-01T12:06:00Z,28.4330,-82.6670,10.0,2.11,96.95,3.91,'1111122,1111122,1111122' 
COMPS,ioos:station:USF.COMPS:ARP:1,2015-03-01T12:12:00Z,28.4330,-82.6670,10.0,2.25,83.08,3.52,'1111122,1111122,1111122' 
COMPS,ioos:station:USF.COMPS:ARP:1,2015-03-01T12:18:00Z,28.4330,-82.6670,10.0,2.19,78.11,3.52,'1111122,1111122,1111122' 
COMPS,ioos:station:USF.COMPS:ARP:1,2015-03-01T12:24:00Z,28.4330,-82.6670,10.0,2.22,74.15,3.42,'1111122,1111122,1111122' 
COMPS,ioos:station:USF.COMPS:ARP:1,2015-03-01T12:30:00Z,28.4330,-82.6670,10.0,1.82,83.55,2.54,'1111122,1111122,1111122' 
COMPS,ioos:station:USF.COMPS:ARP:1,2015-03-01T12:36:00Z,28.4330,-82.6670,10.0,1.79,85.35,2.35,'1111122,1111122,1111122' 
COMPS,ioos:station:USF.COMPS:ARP:1,2015-03-01T12:42:00Z,28.4330,-82.6670,10.0,2.02,71.97,2.84,'1111122,1111122,1111122' 
COMPS,ioos:station:USF.COMPS:ARP:1,2015-03-01T12:48:00Z,28.4330,-82.6670,10.0,2.24,67.32,2.93,'1111122,1111122,1111122' 
COMPS,ioos:station:USF.COMPS:ARP:1,2015-03-01T12:54:00Z,28.4330,-82.6670,10.0,2.14,68.67,2.84,'1111122,1111122,1111122' 
COMPS,ioos:station:USF.COMPS:ARP:1,2015-03-01T13:00:00Z,28.4330,-82.6670,10.0,2.02,73.36,2.74,'1111122,1111122,1111122' 
COMPS,ioos:station:USF.COMPS:ARP:1,2015-03-01T13:06:00Z,28.4330,-82.6670,10.0,1.81,82.8,2.64,'1111122,1111122,1111122' 
COMPS,ioos:station:USF.COMPS:ARP:1,2015-03-01T13:12:00Z,28.4330,-82.6670,10.0,1.98,82.15,3.03,'1111122,1111122,1111122' 
COMPS,ioos:station:USF.COMPS:ARP:1,2015-03-01T13:18:00Z,28.4330,-82.6670,10.0,2.15,81.37,3.13,'1111122,1111122,1111122' 
COMPS,ioos:station:USF.COMPS:ARP:1,2015-03-01T13:24:00Z,28.4330,-82.6670,10.0,2.17,82.98,3.03,'1111122,1111122,1111122' 
COMPS,ioos:station:USF.COMPS:ARP:1,2015-03-01T13:30:00Z,28.4330,-82.6670,10.0,2.16,83.8,3.03,'1111122,1111122,1111122' 
COMPS,ioos:station:USF.COMPS:ARP:1,2015-03-01T13:36:00Z,28.4330,-82.6670,10.0,2.42,88.59,4.01,'1111122,1111122,1111122' 
COMPS,ioos:station:USF.COMPS:ARP:1,2015-03-01T13:42:00Z,28.4330,-82.6670,10.0,2.49,92.51,3.82,'1111122,1111122,1111122' 
COMPS,ioos:station:USF.COMPS:ARP:1,2015-03-01T13:48:00Z,28.4330,-82.6670,10.0,2.46,89.2,4.21,'1111122,1111122,1111122' 
COMPS,ioos:station:USF.COMPS:ARP:1,2015-03-01T13:54:00Z,28.4330,-82.6670,10.0,2.22,91.28,4.01,'1111122,1111122,1111122' 
COMPS,ioos:station:USF.COMPS:ARP:1,2015-03-01T14:00:00Z,28.4330,-82.6670,10.0,2.68,96.49,4.01,'1111122,1111122,1111122' 
COMPS,ioos:station:USF.COMPS:ARP:1,2015-03-01T14:06:00Z,28.4330,-82.6670,10.0,2.98,89.67,4.7,'1111122,1111122,1111122' 
COMPS,ioos:station:USF.COMPS:ARP:1,2015-03-01T14:12:00Z,28.4330,-82.6670,10.0,2.54,88.08,4.01,'1111122,1111122,1111122' 
COMPS,ioos:station:USF.COMPS:ARP:1,2015-03-01T14:18:00Z,28.4330,-82.6670,10.0,2.34,85.55,3.23,'1111122,1111122,1111122' 
COMPS,ioos:station:USF.COMPS:ARP:1,2015-03-01T14:24:00Z,28.4330,-82.6670,10.0,2.29,84.61,3.33,'1111122,1111122,1111122' 
COMPS,ioos:station:USF.COMPS:ARP:1,2015-03-01T14:30:00Z,28.4330,-82.6670,10.0,2.3,79.79,3.52,'1111122,1111122,1111122' 
COMPS,ioos:station:USF.COMPS:ARP:1,2015-03-01T14:36:00Z,28.4330,-82.6670,10.0,2.72,93.92,4.11,'1111122,1111122,1111122' 
COMPS,ioos:station:USF.COMPS:ARP:1,2015-03-01T14:42:00Z,28.4330,-82.6670,10.0,2.31,77.71,3.62,'1111122,1111122,1111122' 
COMPS,ioos:station:USF.COMPS:ARP:1,2015-03-01T14:48:00Z,28.4330,-82.6670,10.0,2.89,78.54,4.41,'1111122,1111122,1111122' 
COMPS,ioos:station:USF.COMPS:ARP:1,2015-03-01T14:54:00Z,28.4330,-82.6670,10.0,2.58,90.62,4.11,'1111122,1111122,1111122' 
COMPS,ioos:station:USF.COMPS:ARP:1,2015-03-01T15:00:00Z,28.4330,-82.6670,10.0,2.77,86.06,4.6,'1111122,1111122,1111122' 
COMPS,ioos:station:USF.COMPS:ARP:1,2015-03-01T15:06:00Z,28.4330,-82.6670,10.0,2.5,90.83,3.62,'1111122,1111122,1111122' 
COMPS,ioos:station:USF.COMPS:ARP:1,2015-03-01T15:12:00Z,28.4330,-82.6670,10.0,2.93,82.04,4.8,'1111122,1111122,1111122' 
COMPS,ioos:station:USF.COMPS:ARP:1,2015-03-01T15:18:00Z,28.4330,-82.6670,10.0,2.77,90.88,4.41,'1111122,1111122,1111122' 
COMPS,ioos:station:USF.COMPS:ARP:1,2015-03-01T15:24:00Z,28.4330,-82.6670,10.0,2.25,84.96,4.5,'1111122,1111122,1111122' 
COMPS,ioos:station:USF.COMPS:ARP:1,2015-03-01T15:30:00Z,28.4330,-82.6670,10.0,3.07,101.12,4.31,'1111122,1111122,1111122' 
COMPS,ioos:station:USF.COMPS:ARP:1,2015-03-01T15:36:00Z,28.4330,-82.6670,10.0,3.52,93.78,5.78,'1111122,1111122,1111122' 
COMPS,ioos:station:USF.COMPS:ARP:1,2015-03-01T15:42:00Z,28.4330,-82.6670,10.0,4.18,112.01,7.15,'1111122,1111122,1111122' 
COMPS,ioos:station:USF.COMPS:ARP:1,2015-03-01T15:48:00Z,28.4330,-82.6670,10.0,3.13,107.11,4.7,'1111122,1111122,1111122' 
COMPS,ioos:station:USF.COMPS:ARP:1,2015-03-01T15:54:00Z,28.4330,-82.6670,10.0,2.46,107.97,4.01,'1111122,1111122,1111122' 
COMPS,ioos:station:USF.COMPS:ARP:1,2015-03-01T16:00:00Z,28.4330,-82.6670,10.0,2.65,109.39,4.31,'1111122,1111122,1111122' 
COMPS,ioos:station:USF.COMPS:ARP:1,2015-03-01T16:06:00Z,28.4330,-82.6670,10.0,2.7,112.97,4.8,'1111122,1111122,1111122' 
COMPS,ioos:station:USF.COMPS:ARP:1,2015-03-01T16:12:00Z,28.4330,-82.6670,10.0,2.32,111.31,3.72,'1111122,1111122,1111122' 
COMPS,ioos:station:USF.COMPS:ARP:1,2015-03-01T16:18:00Z,28.4330,-82.6670,10.0,2.73,103.71,4.5,'1111122,1111122,1111122' 
COMPS,ioos:station:USF.COMPS:ARP:1,2015-03-01T16:24:00Z,28.4330,-82.6670,10.0,3.18,106.09,5.09,'1111122,1111122,1111122' 
COMPS,ioos:station:USF.COMPS:ARP:1,2015-03-01T16:30:00Z,28.4330,-82.6670,10.0,2.48,105.1,5.39,'1111122,1111122,1111122' 
COMPS,ioos:station:USF.COMPS:ARP:1,2015-03-01T16:36:00Z,28.4330,-82.6670,10.0,2.42,106.78,3.62,'1111122,1111122,1111122' 
COMPS,ioos:station:USF.COMPS:ARP:1,2015-03-01T16:42:00Z,28.4330,-82.6670,10.0,3.1,94.75,6.46,'1111122,1111122,1111122' 
COMPS,ioos:station:USF.COMPS:ARP:1,2015-03-01T16:48:00Z,28.4330,-82.6670,10.0,2.98,100.13,5.58,'1111122,1111122,1111122' 
COMPS,ioos:station:USF.COMPS:ARP:1,2015-03-01T16:54:00Z,28.4330,-82.6670,10.0,3.02,101.2,4.99,'1111122,1111122,1111122' 
COMPS,ioos:station:USF.COMPS:ARP:1,2015-03-01T17:00:00Z,28.4330,-82.6670,10.0,3.33,101.15,4.8,'1111122,1111122,1111122' 
COMPS,ioos:station:USF.COMPS:ARP:1,2015-03-01T17:06:00Z,28.4330,-82.6670,10.0,2.2,100.95,4.01,'1111122,1111122,1111122' 
COMPS,ioos:station:USF.COMPS:ARP:1,2015-03-01T17:12:00Z,28.4330,-82.6670,10.0,0.94,121.06,2.25,'1111122,1111122,1111122' 
COMPS,ioos:station:USF.COMPS:ARP:1,2015-03-01T17:18:00Z,28.4330,-82.6670,10.0,1.96,120.03,3.82,'1111122,1111122,1111122' 
COMPS,ioos:station:USF.COMPS:ARP:1,2015-03-01T17:24:00Z,28.4330,-82.6670,10.0,1.79,112.42,4.11,'1111122,1111122,1111122' 
COMPS,ioos:station:USF.COMPS:ARP:1,2015-03-01T17:30:00Z,28.4330,-82.6670,10.0,1.65,154.67,3.03,'1111122,1111122,1111122' 
COMPS,ioos:station:USF.COMPS:ARP:1,2015-03-01T17:36:00Z,28.4330,-82.6670,10.0,1.5,116.55,3.03,'1111122,1111122,1111122' 
COMPS,ioos:station:USF.COMPS:ARP:1,2015-03-01T17:42:00Z,28.4330,-82.6670,10.0,1.8,116.78,2.84,'1111122,1111122,1111122' 
COMPS,ioos:station:USF.COMPS:ARP:1,2015-03-01T17:48:00Z,28.4330,-82.6670,10.0,1.86,122.61,3.52,'1111122,1111122,1111122' 
COMPS,ioos:station:USF.COMPS:ARP:1,2015-03-01T17:54:00Z,28.4330,-82.6670,10.0,1.7,148.38,3.62,'1111122,1111122,1111122' 
COMPS,ioos:station:USF.COMPS:ARP:1,2015-03-01T18:00:00Z,28.4330,-82.6670,10.0,2.48,104.12,4.6,'1111122,1111122,1111122' 
COMPS,ioos:station:USF.COMPS:ARP:1,2015-03-01T18:06:00Z,28.4330,-82.6670,10.0,1.82,119.19,3.03,'1111122,1111122,1111122' 
COMPS,ioos:station:USF.COMPS:ARP:1,2015-03-01T18:12:00Z,28.4330,-82.6670,10.0,2.12,89.43,3.62,'1111122,1111122,1111122' 
COMPS,ioos:station:USF.COMPS:ARP:1,2015-03-01T18:18:00Z,28.4330,-82.6670,10.0,1.36,111.88,3.03,'1111122,1111122,1111122' 
COMPS,ioos:station:USF.COMPS:ARP:1,2015-03-01T18:24:00Z,28.4330,-82.6670,10.0,1.61,90.25,3.62,'1111122,1111122,1111122' 
COMPS,ioos:station:USF.COMPS:ARP:1,2015-03-01T18:30:00Z,28.4330,-82.6670,10.0,2.23,101.59,3.82,'1111122,1111122,1111122' 
COMPS,ioos:station:USF.COMPS:ARP:1,2015-03-01T18:36:00Z,28.4330,-82.6670,10.0,2.14,98.57,3.42,'1111122,1111122,1111122' 
COMPS,ioos:station:USF.COMPS:ARP:1,2015-03-01T18:42:00Z,28.4330,-82.6670,10.0,1.43,98.94,2.74,'1111122,1111122,1111122' 
COMPS,ioos:station:USF.COMPS:ARP:1,2015-03-01T18:48:00Z,28.4330,-82.6670,10.0,1.08,131.36,2.45,'1111122,1111122,1111122' 
COMPS,ioos:station:USF.COMPS:ARP:1,2015-03-01T18:54:00Z,28.4330,-82.6670,10.0,1.2,169.6,2.64,'1111122,1111122,1111122' 
COMPS,ioos:station:USF.COMPS:ARP:1,2015-03-01T19:00:00Z,28.4330,-82.6670,10.0,1.63,115.32,3.03,'1111122,1111122,1111122' 
COMPS,ioos:station:USF.COMPS:ARP:1,2015-03-01T19:06:00Z,28.4330,-82.6670,10.0,1.42,131.7,2.45,'1111122,1111122,1111122' 
COMPS,ioos:station:USF.COMPS:ARP:1,2015-03-01T19:12:00Z,28.4330,-82.6670,10.0,1.68,110.45,2.93,'1111122,1111122,1111122' 
COMPS,ioos:station:USF.COMPS:ARP:1,2015-03-01T19:18:00Z,28.4330,-82.6670,10.0,1.71,120.76,3.62,'1111122,1111122,1111122' 
COMPS,ioos:station:USF.COMPS:ARP:1,2015-03-01T19:24:00Z,28.4330,-82.6670,10.0,0.99,128.17,2.84,'1111122,1111122,1111122' 
COMPS,ioos:station:USF.COMPS:ARP:1,2015-03-01T19:30:00Z,28.4330,-82.6670,10.0,1.11,201.35,3.82,'1111122,1111122,1111122' 
COMPS,ioos:station:USF.COMPS:ARP:1,2015-03-01T19:36:00Z,28.4330,-82.6670,10.0,3.48,302.82,4.5,'1111122,1111122,1111122' 
COMPS,ioos:station:USF.COMPS:ARP:1,2015-03-01T19:42:00Z,28.4330,-82.6670,10.0,2.35,316.21,4.01,'1111122,1111122,1111122' 
COMPS,ioos:station:USF.COMPS:ARP:1,2015-03-01T19:48:00Z,28.4330,-82.6670,10.0,2.01,310.19,3.33,'1111122,1111122,1111122' 
COMPS,ioos:station:USF.COMPS:ARP:1,2015-03-01T19:54:00Z,28.4330,-82.6670,10.0,2.42,307.46,3.42,'1111122,1111122,1111122' 
COMPS,ioos:station:USF.COMPS:ARP:1,2015-03-01T20:00:00Z,28.4330,-82.6670,10.0,2.66,312.94,3.52,'1111122,1111122,1111122' 
COMPS,ioos:station:USF.COMPS:ARP:1,2015-03-01T20:06:00Z,28.4330,-82.6670,10.0,3.13,312.37,4.21,'1111122,1111122,1111122' 
COMPS,ioos:station:USF.COMPS:ARP:1,2015-03-01T20:12:00Z,28.4330,-82.6670,10.0,3.5,306.81,4.5,'1111122,1111122,1111122' 
COMPS,ioos:station:USF.COMPS:ARP:1,2015-03-01T20:18:00Z,28.4330,-82.6670,10.0,2.06,312.18,3.72,'1111122,1111122,1111122' 
COMPS,ioos:station:USF.COMPS:ARP:1,2015-03-01T20:24:00Z,28.4330,-82.6670,10.0,1.64,316.93,2.64,'1111122,1111122,1111122' 
COMPS,ioos:station:USF.COMPS:ARP:1,2015-03-01T20:30:00Z,28.4330,-82.6670,10.0,1.23,336.68,2.54,'1111122,1111122,1111122' 
COMPS,ioos:station:USF.COMPS:ARP:1,2015-03-01T20:36:00Z,28.4330,-82.6670,10.0,0.95,320.48,2.05,'1111122,1111122,1111122' 
COMPS,ioos:station:USF.COMPS:ARP:1,2015-03-01T20:42:00Z,28.4330,-82.6670,10.0,1.16,346.55,2.64,'1111122,1111122,1111122' 
COMPS,ioos:station:USF.COMPS:ARP:1,2015-03-01T20:48:00Z,28.4330,-82.6670,10.0,1.1,324.98,2.74,'1111122,1111122,1111122' 
COMPS,ioos:station:USF.COMPS:ARP:1,2015-03-01T20:54:00Z,28.4330,-82.6670,10.0,0.96,335.81,2.54,'1111122,1111122,1111122' 
COMPS,ioos:station:USF.COMPS:ARP:1,2015-03-01T21:00:00Z,28.4330,-82.6670,10.0,1.53,319.05,3.23,'1111122,1111122,1111122' 
COMPS,ioos:station:USF.COMPS:ARP:1,2015-03-01T21:06:00Z,28.4330,-82.6670,10.0,1.22,325.58,2.15,'1111122,1111122,1111122' 
COMPS,ioos:station:USF.COMPS:ARP:1,2015-03-01T21:12:00Z,28.4330,-82.6670,10.0,1.47,353.15,3.52,'1111122,1111122,1111122' 
COMPS,ioos:station:USF.COMPS:ARP:1,2015-03-01T21:18:00Z,28.4330,-82.6670,10.0,1.2,339.66,2.74,'1111122,1111122,1111122' 
COMPS,ioos:station:USF.COMPS:ARP:1,2015-03-01T21:24:00Z,28.4330,-82.6670,10.0,1.85,315.06,3.03,'1111122,1111122,1111122' 
COMPS,ioos:station:USF.COMPS:ARP:1,2015-03-01T21:30:00Z,28.4330,-82.6670,10.0,1.39,315.09,2.45,'1111122,1111122,1111122' 
COMPS,ioos:station:USF.COMPS:ARP:1,2015-03-01T21:36:00Z,28.4330,-82.6670,10.0,1.62,353.24,3.33,'1111122,1111122,1111122' 
COMPS,ioos:station:USF.COMPS:ARP:1,2015-03-01T21:42:00Z,28.4330,-82.6670,10.0,0.95,340.06,2.74,'1111122,1111122,1111122' 
COMPS,ioos:station:USF.COMPS:ARP:1,2015-03-01T21:48:00Z,28.4330,-82.6670,10.0,1.25,309.49,2.45,'1111122,1111122,1111122' 
COMPS,ioos:station:USF.COMPS:ARP:1,2015-03-01T21:54:00Z,28.4330,-82.6670,10.0,1.68,317.39,2.93,'1111122,1111122,1111122' 
COMPS,ioos:station:USF.COMPS:ARP:1,2015-03-02T02:00:00Z,28.4330,-82.6670,10.0,0.69,36.79,1.95,'1111122,1111122,1111122' 
COMPS,ioos:station:USF.COMPS:ARP:1,2015-03-02T02:06:00Z,28.4330,-82.6670,10.0,0.75,44.76,2.35,'1111122,1111122,1111122' 
COMPS,ioos:station:USF.COMPS:ARP:1,2015-03-02T02:12:00Z,28.4330,-82.6670,10.0,0.85,40.72,2.45,'1111122,1111122,1111122' 
COMPS,ioos:station:USF.COMPS:ARP:1,2015-03-02T02:18:00Z,28.4330,-82.6670,10.0,0.78,54.51,2.54,'1111122,1111122,1111122' 
COMPS,ioos:station:USF.COMPS:ARP:1,2015-03-02T02:24:00Z,28.4330,-82.6670,10.0,1.07,43.64,2.15,'1111122,1111122,1111122' 
COMPS,ioos:station:USF.COMPS:ARP:1,2015-03-02T02:30:00Z,28.4330,-82.6670,10.0,0.84,39.4,3.03,'1111122,1111122,1111122' 
COMPS,ioos:station:USF.COMPS:ARP:1,2015-03-02T02:36:00Z,28.4330,-82.6670,10.0,1.26,42.04,3.42,'1111122,1111122,1111122' 